TAP2AM LPFR-GMMX

Flight info

Callsign TAP2AM
Flight time 1h 1m
Altitude 39000
Route AMSEL UR722 MABAP
Aircraft A320/M-SDE3FGHIRWY/LB1

Departure

Time 2026-04-27 17:37
Airport Faro - Gago Coutinho International Airport (LPFR)

Arrival

Time 2026-04-27 18:38
Airport Marrakesh Menara Airport (GMMX)
Time Latitude Longitude Altitude Speed Heading
2026-04-27 17:15 37.01917 -7.96837 20 ft 0 kts 10°
2026-04-27 17:29 37.01907 -7.96839 20 ft 2 kts 15°
2026-04-27 17:30 37.01891 -7.96845 20 ft 2 kts 19°
2026-04-27 17:30 37.01862 -7.96862 22 ft 2 kts 39°
2026-04-27 17:30 37.01850 -7.96876 21 ft 2 kts 59°
2026-04-27 17:31 37.01843 -7.96895 21 ft 2 kts 83°
2026-04-27 17:31 37.01843 -7.96915 24 ft 2 kts 99°
2026-04-27 17:31 37.01843 -7.96921 24 ft 0 kts 101°
2026-04-27 17:33 37.01834 -7.96862 21 ft 7 kts 101°
2026-04-27 17:33 37.01827 -7.96821 21 ft 7 kts 101°
2026-04-27 17:33 37.01815 -7.96746 20 ft 9 kts 101°
2026-04-27 17:34 37.01800 -7.96648 22 ft 10 kts 101°
2026-04-27 17:34 37.01787 -7.96570 20 ft 17 kts 101°
2026-04-27 17:34 37.01757 -7.96375 22 ft 28 kts 97°
2026-04-27 17:34 37.01726 -7.96124 20 ft 23 kts 104°
2026-04-27 17:35 37.01626 -7.96089 20 ft 14 kts 191°
2026-04-27 17:35 37.01550 -7.96047 20 ft 15 kts 102°
2026-04-27 17:35 37.01524 -7.95879 22 ft 22 kts 118°
2026-04-27 17:35 37.01413 -7.95842 21 ft 19 kts 191°
2026-04-27 17:36 37.01351 -7.95929 20 ft 9 kts 288°
2026-04-27 17:36 37.01369 -7.96045 20 ft 23 kts 282°
2026-04-27 17:36 37.01452 -7.96641 22 ft 115 kts 279°
2026-04-27 17:36 37.01638 -7.97909 221 ft 167 kts 280°
2026-04-27 17:37 37.01856 -7.99365 1079 ft 175 kts 279°
2026-04-27 17:37 37.02091 -8.00918 1881 ft 190 kts 279°
2026-04-27 17:37 37.02338 -8.02566 2466 ft 200 kts 280°
2026-04-27 17:37 37.02601 -8.04377 2794 ft 222 kts 281°
2026-04-27 17:38 37.02851 -8.06387 3181 ft 247 kts 272°
2026-04-27 17:38 37.02443 -8.08558 3664 ft 270 kts 239°
2026-04-27 17:38 37.01075 -8.10188 4405 ft 279 kts 204°
2026-04-27 17:38 36.99183 -8.10620 5245 ft 279 kts 171°
2026-04-27 17:39 36.97264 -8.10263 6203 ft 280 kts 167°
2026-04-27 17:39 36.95336 -8.09827 7138 ft 282 kts 168°
2026-04-27 17:39 36.93403 -8.09375 8091 ft 284 kts 170°
2026-04-27 17:39 36.91453 -8.08922 9036 ft 286 kts 171°
2026-04-27 17:40 36.89491 -8.08474 9969 ft 288 kts 172°
2026-04-27 17:40 36.87453 -8.08020 10397 ft 309 kts 172°
2026-04-27 17:40 36.85299 -8.07546 10866 ft 324 kts 172°
2026-04-27 17:40 36.83055 -8.07052 11614 ft 330 kts 172°
2026-04-27 17:41 36.80781 -8.06551 12411 ft 334 kts 172°
2026-04-27 17:41 36.78475 -8.06045 13211 ft 338 kts 172°
2026-04-27 17:41 36.76146 -8.05537 13963 ft 341 kts 171°
2026-04-27 17:41 36.73797 -8.05027 14650 ft 345 kts 171°
2026-04-27 17:42 36.71418 -8.04509 15339 ft 348 kts 172°
2026-04-27 17:42 36.69030 -8.03986 16068 ft 349 kts 172°
2026-04-27 17:42 36.66629 -8.03459 16753 ft 353 kts 172°
2026-04-27 17:42 36.64199 -8.02928 17421 ft 356 kts 172°
2026-04-27 17:43 36.61748 -8.02394 18089 ft 360 kts 172°
2026-04-27 17:43 36.59259 -8.01857 18675 ft 363 kts 172°
2026-04-27 17:43 36.56761 -8.01319 19246 ft 366 kts 171°
2026-04-27 17:43 36.54229 -8.00769 19832 ft 369 kts 171°
2026-04-27 17:44 36.51688 -8.00214 20413 ft 372 kts 171°
2026-04-27 17:44 36.49132 -7.99654 20981 ft 375 kts 171°
2026-04-27 17:44 36.46582 -7.99098 21546 ft 377 kts 171°
2026-04-27 17:44 36.43967 -7.98529 22170 ft 378 kts 171°
2026-04-27 17:45 36.41399 -7.97971 22666 ft 382 kts 170°
2026-04-27 17:45 36.38776 -7.97401 23215 ft 384 kts 170°
2026-04-27 17:45 36.36129 -7.96827 23673 ft 387 kts 170°
2026-04-27 17:45 36.33461 -7.96251 24097 ft 390 kts 171°
2026-04-27 17:46 36.30779 -7.95673 24524 ft 393 kts 171°
2026-04-27 17:46 36.28074 -7.95090 24999 ft 394 kts 171°
2026-04-27 17:46 36.25368 -7.94505 25405 ft 397 kts 171°
2026-04-27 17:46 36.22633 -7.93913 25817 ft 399 kts 171°
2026-04-27 17:47 36.19882 -7.93321 26165 ft 404 kts 171°
2026-04-27 17:47 36.18048 -7.92927 26433 ft 405 kts 171°
2026-04-27 17:47 36.14331 -7.92127 27002 ft 407 kts 171°
2026-04-27 17:47 36.11535 -7.91525 27433 ft 408 kts 171°
2026-04-27 17:48 36.08725 -7.90920 27816 ft 411 kts 171°
2026-04-27 17:48 36.05900 -7.90313 28186 ft 414 kts 171°
2026-04-27 17:48 36.03042 -7.89703 28480 ft 419 kts 171°
2026-04-27 17:48 36.00165 -7.89091 28917 ft 419 kts 171°
2026-04-27 17:49 35.97274 -7.88478 29288 ft 421 kts 172°
2026-04-27 17:49 35.94398 -7.88124 29698 ft 422 kts 176°
2026-04-27 17:49 35.91415 -7.87846 30021 ft 425 kts 176°
2026-04-27 17:49 35.88491 -7.87577 30276 ft 429 kts 176°
2026-04-27 17:50 35.85512 -7.87308 30597 ft 430 kts 176°
2026-04-27 17:50 35.79535 -7.86773 31226 ft 432 kts 176°
2026-04-27 17:50 35.76531 -7.86502 31478 ft 435 kts 176°
2026-04-27 17:51 35.73503 -7.86229 31821 ft 434 kts 176°
2026-04-27 17:51 35.70499 -7.85957 32272 ft 432 kts 176°
2026-04-27 17:51 35.67513 -7.85687 32765 ft 429 kts 176°
2026-04-27 17:51 35.64535 -7.85419 33156 ft 428 kts 176°
2026-04-27 17:52 35.61547 -7.85149 33462 ft 430 kts 176°
2026-04-27 17:52 35.58571 -7.84880 33889 ft 427 kts 176°
2026-04-27 17:52 35.55611 -7.84612 34291 ft 425 kts 176°
2026-04-27 17:52 35.52674 -7.84345 34644 ft 423 kts 176°
2026-04-27 17:53 35.49735 -7.84078 34931 ft 423 kts 176°
2026-04-27 17:53 35.46835 -7.83815 35165 ft 424 kts 176°
2026-04-27 17:53 35.43893 -7.83555 35460 ft 424 kts 176°
2026-04-27 17:53 35.40957 -7.83297 35793 ft 422 kts 176°
2026-04-27 17:54 35.38031 -7.83041 36055 ft 422 kts 176°
2026-04-27 17:54 35.35100 -7.82790 36311 ft 422 kts 176°
2026-04-27 17:54 35.32177 -7.82546 36576 ft 421 kts 176°
2026-04-27 17:54 35.29250 -7.82303 36846 ft 420 kts 176°
2026-04-27 17:55 35.26332 -7.82060 37132 ft 419 kts 176°
2026-04-27 17:55 35.23420 -7.81813 37363 ft 420 kts 176°
2026-04-27 17:55 35.20509 -7.81566 37590 ft 420 kts 176°
2026-04-27 17:55 35.17598 -7.81321 37825 ft 419 kts 176°
2026-04-27 17:56 35.14689 -7.81078 38081 ft 419 kts 176°
2026-04-27 17:56 35.11783 -7.80838 38307 ft 418 kts 176°
2026-04-27 17:56 35.08883 -7.80599 38539 ft 418 kts 176°
2026-04-27 17:56 35.05982 -7.80355 38714 ft 417 kts 176°
2026-04-27 17:57 35.03083 -7.80112 38835 ft 418 kts 176°
2026-04-27 17:57 35.00216 -7.79872 38865 ft 419 kts 176°
2026-04-27 17:57 34.94398 -7.79384 38857 ft 419 kts 176°
2026-04-27 17:58 34.88589 -7.78900 38854 ft 419 kts 176°
2026-04-27 17:58 34.82772 -7.78407 38853 ft 418 kts 176°
2026-04-27 17:59 34.76963 -7.77917 38853 ft 419 kts 177°
2026-04-27 17:59 34.71147 -7.77451 38859 ft 419 kts 177°
2026-04-27 18:00 34.65321 -7.77051 38865 ft 419 kts 178°
2026-04-27 18:00 34.59537 -7.76669 38869 ft 419 kts 178°
2026-04-27 18:01 34.53708 -7.76267 38867 ft 419 kts 177°
2026-04-27 18:01 34.47890 -7.75863 38863 ft 419 kts 177°
2026-04-27 18:02 34.42067 -7.75460 38863 ft 419 kts 177°
2026-04-27 18:02 34.36247 -7.75050 38868 ft 419 kts 177°
2026-04-27 18:03 34.30429 -7.74642 38865 ft 419 kts 177°
2026-04-27 18:03 34.24607 -7.74237 38864 ft 419 kts 177°
2026-04-27 18:04 34.18828 -7.73838 38866 ft 418 kts 177°
2026-04-27 18:04 34.13021 -7.73365 38863 ft 418 kts 176°
2026-04-27 18:05 34.07222 -7.72798 38864 ft 418 kts 176°
2026-04-27 18:05 34.01425 -7.72235 38863 ft 418 kts 176°
2026-04-27 18:06 33.95620 -7.71694 38861 ft 418 kts 176°
2026-04-27 18:06 33.89819 -7.71163 38865 ft 418 kts 176°
2026-04-27 18:07 33.84021 -7.70633 38872 ft 418 kts 176°
2026-04-27 18:07 33.78226 -7.70102 38872 ft 418 kts 176°
2026-04-27 18:08 33.72460 -7.69573 38861 ft 418 kts 176°
2026-04-27 18:08 33.66651 -7.69038 38855 ft 418 kts 176°
2026-04-27 18:09 33.60843 -7.68503 38852 ft 419 kts 176°
2026-04-27 18:09 33.55015 -7.68120 38851 ft 418 kts 184°
2026-04-27 18:10 33.49382 -7.69657 38851 ft 417 kts 203°
2026-04-27 18:10 33.44308 -7.72925 38856 ft 417 kts 208°
2026-04-27 18:11 33.39229 -7.76293 38870 ft 417 kts 208°
2026-04-27 18:11 33.34134 -7.79653 38870 ft 418 kts 208°
2026-04-27 18:12 33.29047 -7.83020 38878 ft 418 kts 208°
2026-04-27 18:12 33.23953 -7.86385 38698 ft 418 kts 208°
2026-04-27 18:13 33.21403 -7.88064 38463 ft 417 kts 208°
2026-04-27 18:13 33.18865 -7.89735 38169 ft 416 kts 208°
2026-04-27 18:13 33.16341 -7.91397 37643 ft 413 kts 208°
2026-04-27 18:13 33.13824 -7.93056 37022 ft 412 kts 208°
2026-04-27 18:14 33.11322 -7.94706 36452 ft 411 kts 207°
2026-04-27 18:14 33.08827 -7.96349 35988 ft 407 kts 207°
2026-04-27 18:14 33.06358 -7.97969 35510 ft 404 kts 207°
2026-04-27 18:14 33.03896 -7.99581 35029 ft 401 kts 207°
2026-04-27 18:15 33.01457 -8.01178 34539 ft 399 kts 207°
2026-04-27 18:15 32.99062 -8.02748 34075 ft 397 kts 207°
2026-04-27 18:15 32.96643 -8.04335 33543 ft 396 kts 207°
2026-04-27 18:15 32.94184 -8.05777 33064 ft 390 kts 199°
2026-04-27 18:16 32.91612 -8.06723 32598 ft 385 kts 190°
2026-04-27 18:16 32.88978 -8.07215 32134 ft 381 kts 186°
2026-04-27 18:16 32.86361 -8.07635 31673 ft 378 kts 186°
2026-04-27 18:16 32.83760 -8.08064 31220 ft 375 kts 186°
2026-04-27 18:17 32.81186 -8.08493 30775 ft 372 kts 186°
2026-04-27 18:17 32.78631 -8.08918 30340 ft 369 kts 186°
2026-04-27 18:17 32.76094 -8.09338 29894 ft 367 kts 186°
2026-04-27 18:17 32.73575 -8.09752 29441 ft 363 kts 186°
2026-04-27 18:18 32.71085 -8.10161 29025 ft 358 kts 186°
2026-04-27 18:18 32.68630 -8.10565 28627 ft 354 kts 186°
2026-04-27 18:18 32.66206 -8.10965 28231 ft 349 kts 186°
2026-04-27 18:18 32.63810 -8.11357 27835 ft 345 kts 187°
2026-04-27 18:19 32.61469 -8.11738 27443 ft 342 kts 186°
2026-04-27 18:19 32.59125 -8.12122 27040 ft 338 kts 186°
2026-04-27 18:19 32.56801 -8.12502 26646 ft 335 kts 186°
2026-04-27 18:19 32.54502 -8.12877 26236 ft 332 kts 186°
2026-04-27 18:20 32.52221 -8.13248 25837 ft 330 kts 187°
2026-04-27 18:20 32.49958 -8.13616 25420 ft 328 kts 186°
2026-04-27 18:20 32.47696 -8.13986 25004 ft 327 kts 187°
2026-04-27 18:20 32.45441 -8.14355 24573 ft 326 kts 186°
2026-04-27 18:21 32.43194 -8.14720 24139 ft 325 kts 187°
2026-04-27 18:21 32.41711 -8.14962 23855 ft 325 kts 187°
2026-04-27 18:21 32.39474 -8.15327 23412 ft 324 kts 187°
2026-04-27 18:21 32.37236 -8.15689 22929 ft 323 kts 187°
2026-04-27 18:22 32.34300 -8.16163 22376 ft 320 kts 186°
2026-04-27 18:22 32.32103 -8.16519 21943 ft 318 kts 187°
2026-04-27 18:22 32.30620 -8.16759 21663 ft 317 kts 187°
2026-04-27 18:22 32.28442 -8.17112 21260 ft 316 kts 187°
2026-04-27 18:23 32.26267 -8.17466 20836 ft 315 kts 187°
2026-04-27 18:23 32.24100 -8.17816 20426 ft 314 kts 187°
2026-04-27 18:23 32.21935 -8.18166 20016 ft 313 kts 187°
2026-04-27 18:23 32.19782 -8.18514 19621 ft 312 kts 187°
2026-04-27 18:24 32.17629 -8.18863 19219 ft 312 kts 187°
2026-04-27 18:24 32.15480 -8.19212 18809 ft 312 kts 187°
2026-04-27 18:24 32.13350 -8.19321 18415 ft 311 kts 175°
2026-04-27 18:24 32.11227 -8.18840 17990 ft 311 kts 162°
2026-04-27 18:25 32.09250 -8.17812 17570 ft 310 kts 153°
2026-04-27 18:25 32.07332 -8.16653 17171 ft 309 kts 154°
2026-04-27 18:25 32.05419 -8.15503 16781 ft 308 kts 154°
2026-04-27 18:25 32.03507 -8.14360 16393 ft 307 kts 154°
2026-04-27 18:26 32.01602 -8.13225 15995 ft 307 kts 154°
2026-04-27 18:26 31.99687 -8.12078 15569 ft 308 kts 154°
2026-04-27 18:26 31.97772 -8.10930 15178 ft 308 kts 154°
2026-04-27 18:26 31.95859 -8.09780 14791 ft 308 kts 154°
2026-04-27 18:27 31.93950 -8.08637 14409 ft 308 kts 154°
2026-04-27 18:27 31.92044 -8.07501 14038 ft 307 kts 154°
2026-04-27 18:27 31.90137 -8.06365 13661 ft 307 kts 154°
2026-04-27 18:27 31.88234 -8.05230 13241 ft 306 kts 154°
2026-04-27 18:28 31.86339 -8.04100 12832 ft 305 kts 154°
2026-04-27 18:28 31.84461 -8.02979 12550 ft 301 kts 154°
2026-04-27 18:28 31.82623 -8.01881 12201 ft 299 kts 154°
2026-04-27 18:28 31.80815 -8.00688 11817 ft 299 kts 145°
2026-04-27 18:29 31.79298 -7.99017 11413 ft 300 kts 130°
2026-04-27 18:29 31.78030 -7.97071 11002 ft 301 kts 129°
2026-04-27 18:29 31.76760 -7.95121 10613 ft 298 kts 129°
2026-04-27 18:29 31.75519 -7.93222 10206 ft 288 kts 129°
2026-04-27 18:30 31.74323 -7.91389 9805 ft 277 kts 129°
2026-04-27 18:30 31.73166 -7.89620 9373 ft 269 kts 129°
2026-04-27 18:30 31.72044 -7.87911 8953 ft 261 kts 129°
2026-04-27 18:30 31.70951 -7.86246 8530 ft 253 kts 130°
2026-04-27 18:31 31.69893 -7.84631 8105 ft 247 kts 129°
2026-04-27 18:31 31.68859 -7.83052 7685 ft 240 kts 128°
2026-04-27 18:31 31.67800 -7.81558 7274 ft 236 kts 140°
2026-04-27 18:31 31.66402 -7.80619 6867 ft 231 kts 165°
2026-04-27 18:32 31.64823 -7.80446 6466 ft 227 kts 187°
2026-04-27 18:32 31.63280 -7.80639 6030 ft 226 kts 186°
2026-04-27 18:32 31.61708 -7.80830 5529 ft 228 kts 187°
2026-04-27 18:32 31.60134 -7.81096 5046 ft 228 kts 201°
2026-04-27 18:33 31.58925 -7.82214 4553 ft 223 kts 244°
2026-04-27 18:33 31.58639 -7.83873 4436 ft 199 kts 272°
2026-04-27 18:33 31.58762 -7.85369 4435 ft 171 kts 279°
2026-04-27 18:33 31.58934 -7.86658 4443 ft 149 kts 279°
2026-04-27 18:34 31.59091 -7.87839 4218 ft 143 kts 279°
2026-04-27 18:34 31.59233 -7.88970 3962 ft 137 kts 277°
2026-04-27 18:34 31.59362 -7.90064 3723 ft 133 kts 277°
2026-04-27 18:34 31.59483 -7.91139 3485 ft 133 kts 277°
2026-04-27 18:35 31.59599 -7.92217 3249 ft 133 kts 276°
2026-04-27 18:35 31.59710 -7.93288 3083 ft 132 kts 276°
2026-04-27 18:35 31.59815 -7.94348 2924 ft 133 kts 276°
2026-04-27 18:35 31.59919 -7.95423 2751 ft 132 kts 274°
2026-04-27 18:36 31.60023 -7.96508 2619 ft 134 kts 276°
2026-04-27 18:36 31.60125 -7.97590 2449 ft 135 kts 275°
2026-04-27 18:36 31.60227 -7.98673 2241 ft 133 kts 276°
2026-04-27 18:36 31.60342 -7.99758 2011 ft 135 kts 279°
2026-04-27 18:37 31.60442 -8.00854 1785 ft 133 kts 278°
2026-04-27 18:37 31.60534 -8.01919 1616 ft 130 kts 277°
2026-04-27 18:37 31.60626 -8.02931 1534 ft 113 kts 277°
2026-04-27 18:37 31.60697 -8.03658 1523 ft 65 kts 276°
2026-04-27 18:38 31.60721 -8.03935 1519 ft 17 kts 275°
2026-04-27 18:38 31.60726 -8.04080 1518 ft 19 kts 279°
2026-04-27 18:38 31.60748 -8.04278 1516 ft 30 kts 274°
2026-04-27 18:38 31.60711 -8.04399 1514 ft 12 kts 167°
2026-04-27 18:39 31.60583 -8.04397 1512 ft 12 kts 143°
2026-04-27 18:39 31.60577 -8.04365 1515 ft 6 kts 91°
2026-04-27 18:39 31.60569 -8.04230 1515 ft 26 kts 95°
2026-04-27 18:39 31.60547 -8.03955 1520 ft 41 kts 96°
2026-04-27 18:40 31.60519 -8.03629 1524 ft 23 kts 95°
2026-04-27 18:40 31.60503 -8.03410 1527 ft 31 kts 95°
2026-04-27 18:40 31.60479 -8.03134 1527 ft 24 kts 99°
2026-04-27 18:40 31.60465 -8.03013 1532 ft 14 kts 96°